Location: Toronto
(43.6667°N, 79.4167°W)
Time: 10:18:03
(UTC-04:00)

X-37B - Pass Details

Date: 22 June 2021
Orbit: 383 x 392 km, 45.0° (Epoch: 01 July)

Event Time Altitude Azimuth Distance (km) Brightness Sun altitude
Rises 22:01:38 0° 213° (SSW) 2,244 4.3 -9.0°
Reaches altitude 10° 22:04:04 10° 194° (SSW) 1,394 3.1 -9.3°
Maximum altitude 22:06:22 19° 147° (SSE) 985 2.0 -9.6°
Enters shadow 22:08:38 10° 100° (E) 1,381 2.9 -9.9°
